Satellite: HRBE Catalog number: 37855 Epoch time: 14260.81094121 Element set: 913 Inclination: 101.7097 deg RA of node: 336.0794 deg Eccentricity: 0.0213699 Arg of perigee: 146.9430 deg Mean anomaly: 214.5343 deg Mean motion: 14.91068654 rev/day Decay rate: 1.2820e-04 rev/day^2 Epoch rev: 15647 Checksum: 303
Satellite: RS-39 Catalog number: 38051 Epoch time: 14261.71815191 Element set: 921 Inclination: 051.6239 deg RA of node: 106.9011 deg Eccentricity: 0.0008326 Arg of perigee: 227.0087 deg Mean anomaly: 255.0649 deg Mean motion: 15.80072406 rev/day Decay rate: 2.56456e-03 rev/day^2 Epoch rev: 14878 Checksum: 304
Satellite: E-STAR Catalog number: 38079 Epoch time: 14261.71511273 Element set: 972 Inclination: 069.4519 deg RA of node: 102.6256 deg Eccentricity: 0.0321338 Arg of perigee: 219.0242 deg Mean anomaly: 138.7208 deg Mean motion: 15.22242870 rev/day Decay rate: 1.06598e-03 rev/day^2 Epoch rev: 13763 Checksum: 300
Satellite: GOLIAT Catalog number: 38085 Epoch time: 14261.71855723 Element set: 360 Inclination: 069.4530 deg RA of node: 112.1161 deg Eccentricity: 0.0349239 Arg of perigee: 223.5460 deg Mean anomaly: 204.9999 deg Mean motion: 15.14984731 rev/day Decay rate: 8.8294e-04 rev/day^2 Epoch rev: 13738 Checksum: 322
Satellite: HORYU-2 Catalog number: 38340 Epoch time: 14261.51380571 Element set: 966 Inclination: 098.2685 deg RA of node: 220.3508 deg Eccentricity: 0.0011243 Arg of perigee: 235.4093 deg Mean anomaly: 124.6040 deg Mean motion: 14.72788396 rev/day Decay rate: 1.940e-05 rev/day^2 Epoch rev: 12553 Checksum: 291
Satellite: RS-40 Catalog number: 38735 Epoch time: 14260.63935088 Element set: 677 Inclination: 082.4723 deg RA of node: 229.8876 deg Eccentricity: 0.0018324 Arg of perigee: 054.8764 deg Mean anomaly: 305.4027 deg Mean motion: 12.42561050 rev/day Decay rate: 2.4e-07 rev/day^2 Epoch rev: 9706 Checksum: 311
Satellite: PROITERES Catalog number: 38756 Epoch time: 14261.46620220 Element set: 216 Inclination: 098.2275 deg RA of node: 351.2852 deg Eccentricity: 0.0013730 Arg of perigee: 088.2954 deg Mean anomaly: 271.9827 deg Mean motion: 14.75093832 rev/day Decay rate: 8.84e-06 rev/day^2 Epoch rev: 10893 Checksum: 311
Satellite: BEESAT-3 Catalog number: 39134 Epoch time: 14260.90560543 Element set: 702 Inclination: 064.8617 deg RA of node: 204.8945 deg Eccentricity: 0.0033720 Arg of perigee: 290.7796 deg Mean anomaly: 068.9705 deg Mean motion: 15.06217995 rev/day Decay rate: 1.0610e-04 rev/day^2 Epoch rev: 7762 Checksum: 314
Satellite: BEESAT-2 Catalog number: 39136 Epoch time: 14261.20972414 Element set: 685 Inclination: 064.8646 deg RA of node: 204.7161 deg Eccentricity: 0.0033819 Arg of perigee: 290.5460 deg Mean anomaly: 069.2031 deg Mean motion: 15.05485741 rev/day Decay rate: 8.847e-05 rev/day^2 Epoch rev: 7765 Checksum: 313
Satellite: LO-75 Catalog number: 39382 Epoch time: 14261.36341318 Element set: 404 Inclination: 040.4876 deg RA of node: 247.3705 deg Eccentricity: 0.0022061 Arg of perigee: 190.8491 deg Mean anomaly: 169.1829 deg Mean motion: 15.61717198 rev/day Decay rate: 2.05220e-03 rev/day^2 Epoch rev: 4652 Checksum: 305
Satellite: ZACUBE-1 Catalog number: 39417 Epoch time: 14261.44832952 Element set: 405 Inclination: 097.7634 deg RA of node: 328.8357 deg Eccentricity: 0.0061031 Arg of perigee: 301.1692 deg Mean anomaly: 058.3585 deg Mean motion: 14.78347465 rev/day Decay rate: 1.692e-05 rev/day^2 Epoch rev: 4447 Checksum: 319
Satellite: TRITON-1 Catalog number: 39427 Epoch time: 14260.22531902 Element set: 255 Inclination: 097.7539 deg RA of node: 321.6011 deg Eccentricity: 0.0117559 Arg of perigee: 318.1525 deg Mean anomaly: 041.0738 deg Mean motion: 14.65588579 rev/day Decay rate: 1.401e-05 rev/day^2 Epoch rev: 4387 Checksum: 300
Satellite: DELFIN3XT Catalog number: 39428 Epoch time: 14260.75509760 Element set: 260 Inclination: 097.7515 deg RA of node: 321.0532 deg Eccentricity: 0.0126919 Arg of perigee: 319.1844 deg Mean anomaly: 039.9861 deg Mean motion: 14.63618023 rev/day Decay rate: 2.285e-05 rev/day^2 Epoch rev: 4387 Checksum: 314
Satellite: GOMX-1 Catalog number: 39430 Epoch time: 14261.16110969 Element set: 816 Inclination: 097.7454 deg RA of node: 318.4842 deg Eccentricity: 0.0155250 Arg of perigee: 326.1240 deg Mean anomaly: 033.0118 deg Mean motion: 14.57025259 rev/day Decay rate: 1.370e-05 rev/day^2 Epoch rev: 4375 Checksum: 279
Satellite: MO-76 Catalog number: 39436 Epoch time: 14260.44715602 Element set: 332 Inclination: 097.7753 deg RA of node: 332.7191 deg Eccentricity: 0.0024355 Arg of perigee: 304.5381 deg Mean anomaly: 055.2703 deg Mean motion: 14.91955224 rev/day Decay rate: 1.4023e-04 rev/day^2 Epoch rev: 4462 Checksum: 293
Satellite: LO-74 Catalog number: 39440 Epoch time: 14260.64230915 Element set: 256 Inclination: 097.7615 deg RA of node: 325.6569 deg Eccentricity: 0.0083518 Arg of perigee: 308.2282 deg Mean anomaly: 051.1439 deg Mean motion: 14.73276524 rev/day Decay rate: 1.764e-05 rev/day^2 Epoch rev: 4419 Checksum: 317
Satellite: PUCPSAT-1 Catalog number: 39442 Epoch time: 14261.14279286 Element set: 255 Inclination: 097.7716 deg RA of node: 332.2872 deg Eccentricity: 0.0033459 Arg of perigee: 302.0994 deg Mean anomaly: 057.6871 deg Mean motion: 14.86448939 rev/day Decay rate: 3.247e-05 rev/day^2 Epoch rev: 4343 Checksum: 332
Satellite: SHINAISAT Catalog number: 39572 Epoch time: 14260.99470509 Element set: 292 Inclination: 065.0047 deg RA of node: 078.7608 deg Eccentricity: 0.0021168 Arg of perigee: 275.3835 deg Mean anomaly: 084.4985 deg Mean motion: 15.79421921 rev/day Decay rate: 9.1158e-04 rev/day^2 Epoch rev: 3171 Checksum: 326
Satellite: TEIKYOSAT Catalog number: 39576 Epoch time: 14261.59022591 Element set: 306 Inclination: 065.0026 deg RA of node: 072.7508 deg Eccentricity: 0.0021549 Arg of perigee: 280.9991 deg Mean anomaly: 078.8658 deg Mean motion: 15.88659751 rev/day Decay rate: 1.75160e-03 rev/day^2 Epoch rev: 3188 Checksum: 336
Satellite: CO-77 Catalog number: 39577 Epoch time: 14244.78324653 Element set: 379 Inclination: 064.9920 deg RA of node: 123.7668 deg Eccentricity: 0.0014904 Arg of perigee: 269.7208 deg Mean anomaly: 091.1897 deg Mean motion: 16.43552757 rev/day Decay rate: 1.0543803e-01 rev/day^2 Epoch rev: 2938 Checksum: 363
Satellite: SPROUT Catalog number: 39770 Epoch time: 14261.80563710 Element set: 131 Inclination: 097.8719 deg RA of node: 357.5323 deg Eccentricity: 0.0010536 Arg of perigee: 016.7070 deg Mean anomaly: 343.4495 deg Mean motion: 14.82771638 rev/day Decay rate: 9.25e-06 rev/day^2 Epoch rev: 1741 Checksum: 297
Satellite: POPSAT-HIP1 Catalog number: 40028 Epoch time: 14261.53133416 Element set: 266 Inclination: 097.9749 deg RA of node: 156.3481 deg Eccentricity: 0.0015215 Arg of perigee: 357.5639 deg Mean anomaly: 002.5464 deg Mean motion: 14.85295028 rev/day Decay rate: 2.693e-05 rev/day^2 Epoch rev: 1343 Checksum: 299
Satellite: EO-80 Catalog number: 40032 Epoch time: 14261.27577464 Element set: 257 Inclination: 097.9715 deg RA of node: 156.0154 deg Eccentricity: 0.0012976 Arg of perigee: 353.7990 deg Mean anomaly: 006.3052 deg Mean motion: 14.85064525 rev/day Decay rate: 2.631e-05 rev/day^2 Epoch rev: 1340 Checksum: 293
Satellite: VELOX-1 Catalog number: 40057 Epoch time: 14261.52724824 Element set: 250 Inclination: 098.2449 deg RA of node: 330.0853 deg Eccentricity: 0.0012616 Arg of perigee: 032.4874 deg Mean anomaly: 327.7106 deg Mean motion: 14.74172005 rev/day Decay rate: 2.675e-05 rev/day^2 Epoch rev: 1183 Checksum: 273
Satellite: DAURIA DX 1 Catalog number: 40071 Epoch time: 14261.55118141 Element set: 221 Inclination: 098.3942 deg RA of node: 316.3910 deg Eccentricity: 0.0009886 Arg of perigee: 037.9639 deg Mean anomaly: 322.2262 deg Mean motion: 14.79598054 rev/day Decay rate: 1.251e-05 rev/day^2 Epoch rev: 1061 Checksum: 280
Satellite: UKUBE-1 Catalog number: 40074 Epoch time: 14261.50792782 Element set: 223 Inclination: 098.3951 deg RA of node: 316.4566 deg Eccentricity: 0.0006331 Arg of perigee: 050.0102 deg Mean anomaly: 310.1662 deg Mean motion: 14.80551819 rev/day Decay rate: 2.555e-05 rev/day^2 Epoch rev: 1061 Checksum: 259
Satellite: CHASQUI-1 Catalog number: 40117 Epoch time: 14261.80048677 Element set: 104 Inclination: 051.6477 deg RA of node: 355.2921 deg Eccentricity: 0.0003036 Arg of perigee: 093.3719 deg Mean anomaly: 352.0525 deg Mean motion: 15.53344370 rev/day Decay rate: 6.1987e-04 rev/day^2 Epoch rev: 482 Checksum: 284
/EX
participants (1)
-
Ray Hoad